Location: Cold Norton
(51.6667°N, 0.6667°E)
Time: 07:41:19
(UTC+00:00)

ARIANE 6 FM1 Upper Stage - Pass Details

Date: 18 November 2025
Orbit: 522 x 611 km, 62.0° (Epoch: 12 December)

Event Time Altitude Azimuth Distance (km) Brightness Sun altitude
Rises 17:52:57 0° 291° (WNW) 2,661 7.2 -16.7°
Reaches altitude 10° 17:55:41 10° 310° (NW) 1,768 5.7 -17.1°
Maximum altitude 17:58:31 19° 356° (N) 1,313 4.5 -17.5°
Enters shadow 17:59:36 17° 17° (NNE) 1,388 4.4 -17.7°
